Regional Weather Roundup
Issued by NWS Grand Forks, ND

Home | Current Version | Previous Version | Graphics & Text | Print | Product List | Glossary On
Versions: 1 2 3 4 5 6 7 8 9 10 11 12 13 14 15 16 17 18 19 20 21 22 23 24 25 26 27 28 29 30 31 32 33 34 35 36 37 38 39 40 41 42 43 44 45 46 47 48 49 50
000
ASUS43 KFGF 300610
RWRFGF
PRAIRIE TO PINES  WEATHER ROUNDUP
NATIONAL WEATHER SERVICE EASTERN NORTH DAKOTA/GRAND FORKS ND
100 AM CDT THU OCT 30 2014

 **SATELLITE DATA USED TO AUGMENT SKY COVER AT AUTOMATED STATIONS**
 *****  WEATHER ACROSS EASTERN NORTH DAKOTA  *****

CITY           SKY/WX    TMP DP  RH WIND       PRES   REMARKS
GRAND FORKS    CLOUDY    38  32  79 SE9       29.98S
6HR MIN TEMP:  38; 6HR MAX TEMP:  40; 6HR PCP: TRACE;

GRAND FRKS AFB CLOUDY    38  34  87 S6        29.98S
GRAND FRKS NWS   N/A     36 N/A N/A S7          N/A
DEVILS LAKE    CLEAR     34  25  69 E6        29.94R
6HR MIN TEMP:  34; 6HR MAX TEMP:  43;

FARGO          CLOUDY    40  34  79 SE10      29.98F
WAHPETON ARPT  CLOUDY    37  34  87 SE8       30.01F
$$

 ***** WEATHER ACROSS CENTRAL AND WESTERN NORTH DAKOTA  *****

CITY           SKY/WX    TMP DP  RH WIND       PRES   REMARKS
BISMARCK       CLEAR     39  39 100 W6        29.97S
6HR MIN TEMP:  39; 6HR MAX TEMP:  46; 6HR PCP:  0.03;

MINOT          CLEAR     32  29  88 NW10      30.01R WCI  24
6HR MIN TEMP:  32; 6HR MAX TEMP:  43;

JAMESTOWN      MOCLDY    40  38  93 SW5       29.94R
6HR MIN TEMP:  40; 6HR MAX TEMP:  46; 6HR PCP: TRACE;

MINOT AFB      CLEAR     31  31  98 NW10      30.01R WCI  23
GARRISON         N/A     35  33  92 NW10      29.99R
WILLISTON      CLEAR     37  32  82 NW10      30.08R
6HR MIN TEMP:  37; 6HR MAX TEMP:  46;

DICKINSON      CLEAR     38  33  82 NW10      30.02R
6HR MIN TEMP:  36; 6HR MAX TEMP:  45;

HETTINGER      CLEAR     38  33  82 NW10      30.04R
6HR MIN TEMP:  33; 6HR MAX TEMP:  46;

$$

 *****  OTHER AIRPORT OBSERVATIONS IN OUR AREA  *****

CITY           SKY/WX    TMP DP  RH WIND       PRES   REMARKS
WALHALLA       FAIR      34  30  86 NE5       30.04R
GRAFTON AIRPOR MOCLDY    36  30  80 E9        30.01S
VALLEY CITY AR LGT RAIN  39  39 100 S8        29.95R
CANDO          FAIR      28  27  93 N8        29.98R WCI  20
CAVALIER APRT  FAIR      36  28  75 E5        30.02S
GWINNER        MOCLDY    41  41 100 SE8       29.98S
SHEYENNE NWR     N/A     39  37  94 SE7       29.95S
ROLLA          FAIR      27  27 100 NE9       30.00R WCI  17
 ***** THE ABOVE OBSERVATIONS ARE NON NWS ARE NOT QUALITY
       CONTROLLED AND MAY MIS-REPORT RAIN FOR SNOW...
$$

  *****  WEATHER ACROSS NORTHERN MINNESOTA  *****

CITY           SKY/WX    TMP DP  RH WIND       PRES   REMARKS
FLAG ISLAND    CLOUDY    36  34  93 W7        30.03R
WARROAD        CLOUDY    32  28  86 CALM      30.05R
ROSEAU         PTCLDY    32  28  86 CALM      30.04R
HALLOCK        MOCLDY    36  32  87 E7        30.02F
THF RVR FALLS  CLOUDY    36  32  87 E7        30.01S
6HR MIN TEMP:  34; 6HR MAX TEMP:  36;

BAUDETTE       CLOUDY    34  32  92 S3        30.03S
6HR MIN TEMP:  34; 6HR MAX TEMP:  36;

WASKISH        CLOUDY    36  32  87 CALM      30.04S
CROOKSTON      MIX PCPN  37  34  87 SE7       30.01R
$$
  *****  WEATHER ACROSS CENTRAL AND WEST MINNESOTA  *****

CITY           SKY/WX    TMP DP  RH WIND       PRES   REMARKS
FOSSTON        CLOUDY    34  32  93 SE3       30.01R
BEMIDJI        CLOUDY    33  31  90 SE5       30.01F
PARK RAPIDS    CLOUDY    35  30  82 SE5       30.01F
6HR MIN TEMP:  34; 6HR MAX TEMP:  35;

ELBOW LAKE     DRIZZLE   37  35  92 SE9       30.01F
6HR MIN TEMP:  35; 6HR MAX TEMP:  38;

WADENA         RAIN      36  30  80 SE5       30.02F
DETROIT LAKES  CLOUDY    36  34  93 S8        30.00F
MOORHEAD       MOCLDY    39  37  93 SE9       30.00F
FERGUS FALLS   CLOUDY    37  36  93 S9        30.03F
MORRIS MN      NOT AVBL
STAPLES        MOCLDY    34  30  86 CALM      30.03F
$$
  *****  WEATHER ELSEWHERE ACROSS MINNESOTA  *****

CITY           SKY/WX    TMP DP  RH WIND       PRES   REMARKS
DULUTH         CLOUDY    36  32  85 SW5       30.04S
6HR MIN TEMP:  36; 6HR MAX TEMP:  39;

INTRNTL FALLS  CLOUDY    35  33  92 W5        30.03S
6HR MIN TEMP:  34; 6HR MAX TEMP:  36; 6HR PCP: TRACE;

ELY            CLOUDY    34  34 100 W5        30.02F
CLOQUET        CLOUDY    36  32  87 CALM      30.05S
WHEATON        DRIZZLE   36  34  93 E7        30.03F
BRAINERD       CLOUDY    34  31  88 S3        30.05F
6HR MIN TEMP:  34; 6HR MAX TEMP:  37;

HIBBING        CLOUDY    36  32  85 CALM      30.03F
6HR MIN TEMP:  35; 6HR MAX TEMP:  37; 6HR PCP: TRACE;

ALEXANDRIA     CLOUDY    37  32  82 S8        30.04S
6HR MIN TEMP:  34; 6HR MAX TEMP:  37;

SAINT CLOUD    LGT RAIN  38  33  82 CALM      30.07S
6HR MIN TEMP:  35; 6HR MAX TEMP:  41; 6HR PCP: TRACE;

MINNEAPOLIS    CLOUDY    38  32  79 E5        30.08F
6HR MIN TEMP:  37; 6HR MAX TEMP:  41;

$$

  *****  WEATHER ACROSS SOUTH DAKOTA  *****

CITY           SKY/WX    TMP DP  RH WIND       PRES   REMARKS
SIOUX FALLS    CLOUDY    47  32  56 S10       29.99S
6HR MIN TEMP:  44; 6HR MAX TEMP:  48;

BROOKINGS      NOT AVBL
WATERTOWN      CLOUDY    42  35  76 SE6       29.96F
6HR MIN TEMP:  40; 6HR MAX TEMP:  45; 6HR PCP:  0.01;

HURON          CLOUDY    46  33  60 S7        29.96R
6HR MIN TEMP:  46; 6HR MAX TEMP:  50;

SISSETON         N/A     39  38  96 S5        29.99F
ABERDEEN       CLOUDY    45  37  73 CALM      29.97R
6HR MIN TEMP:  45; 6HR MAX TEMP:  48; 6HR PCP: TRACE;

MITCHELL       CLOUDY    47  34  60 S5        29.97S
PIERRE         CLEAR     46  36  68 W9        29.99R
6HR MIN TEMP:  39; 6HR MAX TEMP:  53;

MOBRIDGE       CLEAR     41  34  76 NW9       29.96R
RAPID CITY     CLEAR     43  32  65 NW13      30.11R
6HR MIN TEMP:  39; 6HR MAX TEMP:  51;

$$

  *****  SOME WEATHER IN NEARBY STATES *****

CITY           SKY/WX    TMP DP  RH WIND       PRES   REMARKS
GLASGOW MT     CLEAR     35  30  82 NE5       30.14R
6HR MIN TEMP:  35; 6HR MAX TEMP:  56;

GREAT FALLS MT CLEAR     42  34  73 SW12      30.18S
6HR MIN TEMP:  39; 6HR MAX TEMP:  53;

CHEYENNE WY    CLEAR     47  24  40 N14       30.24R
6HR MIN TEMP:  45; 6HR MAX TEMP:  56;

SCOTTSBLUFF NE MOCLDY    43  29  57 NW9       30.18R
6HR MIN TEMP:  41; 6HR MAX TEMP:  60;

OMAHA NE       PTCLDY    45  31  58 S7        30.06F
6HR MIN TEMP:  44; 6HR MAX TEMP:  50;

DES MOINES IA  MOCLDY    42  33  70 S6        30.11S
6HR MIN TEMP:  42; 6HR MAX TEMP:  51;

DAVENPORT IA   CLEAR     32  26  78 CALM      30.15R
6HR MIN TEMP:  32; 6HR MAX TEMP:  42;

CHICAGO IL     CLEAR     37  31  78 W5        30.13S
6HR MIN TEMP:  36; 6HR MAX TEMP:  47;

EAU CLAIRE WI  MOCLDY    34  30  85 CALM      30.09S
6HR MIN TEMP:  32; 6HR MAX TEMP:  42;

LA CROSSE WI   MOCLDY    37  33  85 SE5       30.11F
6HR MIN TEMP:  36; 6HR MAX TEMP:  43;

$$

  *****  SOME NATIONAL WEATHER *****

CITY           SKY/WX    TMP DP  RH WIND       PRES   REMARKS
LA GUARDIA NY  PTCLDY    53  46  77 NW7       29.94S
6HR MIN TEMP:  53; 6HR MAX TEMP:  55;

RALEIGH NC     MOCLDY    55  47  74 NE5       30.01R
6HR MIN TEMP:  55; 6HR MAX TEMP:  62; 6HR PCP:  0.05;

ATLANTA GA     CLEAR     50  46  86 NW7       30.05F
6HR MIN TEMP:  50; 6HR MAX TEMP:  57;

NEW ORLEANS LA MOCLDY    69  54  58 NE17      30.07S
6HR MIN TEMP:  69; 6HR MAX TEMP:  76;

OKLAHOMA CITY  CLEAR     50  37  61 S6        30.11F
6HR MIN TEMP:  50; 6HR MAX TEMP:  62;

ALBUQUERQUE NM CLEAR     59  14  17 NW6       30.26F
6HR MIN TEMP:  55; 6HR MAX TEMP:  71;

SALT LAKE CITY PTCLDY    48  30  49 SE5       30.25S
6HR MIN TEMP:  45; 6HR MAX TEMP:  62;

LOS ANGELES CA PTCLDY    68  62  83 CALM      30.00R
6HR MIN TEMP:  68; 6HR MAX TEMP:  71;




USA.gov is the U.S. government's official web portal to all federal, state and local government web resources and services.